This demonstration page uses our WeatherBlox Daily Observations layout. Learn more.

Left ArrowRight Arrow

40.92945, -100.16068

Hourly Observations for February 14, 2021

Temp ( °F °C ) Dew Point ( °F °C ) Humidity (%) Winds ( mph kmh ) Pressure ( in mb ) Visibility ( mi km ) Precip ( " mm )
12:15 am 00:15 Cloudy with Light Snow -2 -18.7 -7 -21.5 79 79 NE 8 13 30.72 1040 5 8.0467 N/A
12:35 am 00:35 Cloudy with Light Snow -2 -18.8 -7 -21.5 79 79 N 12 19 30.72 1040 4 6.43736 N/A
12:55 am 00:55 Cloudy with Light Snow -2 -19 -8 -22 77 77 NNE 9 15 30.73 1041 3 4.82802 N/A
1:15 am 01:15 Cloudy with Light Snow -2 -19 -8 -22 77 77 NNE 8 13 30.74 1041 2.5 4.02335 N/A
1:35 am 01:35 Cloudy with Light Snow -3 -19.3 -8 -22.1 79 79 NNE 9 15 30.75 1041 5 8.0467 N/A
1:55 am 01:55 Cloudy with Light Snow -3 -19.5 -9 -22.6 77 77 NNE 13 20 30.76 1042 5 8.0467 N/A
2:15 am 02:15 Cloudy with Light Snow -3 -19.5 -9 -22.5 77 77 NNE 10 17 30.76 1042 3 4.82802 N/A
2:35 am 02:35 Cloudy with Light Snow -3 -19.6 -9 -22.5 78 78 NNE 10 17 30.76 1042 4 6.43736 0.01 0.254
2:55 am 02:55 Cloudy with Light Snow -3 -19.6 -9 -22.6 77 77 NNE 8 13 30.77 1042 7 11.26538 0.01 0.254
3:15 am 03:15 Cloudy with Light Snow -3 -19.6 -9 -22.5 78 78 NNE 9 15 30.77 1042 4 6.43736 N/A
3:35 am 03:35 Cloudy with Light Snow -3 -19.7 -9 -22.7 77 77 NNE 10 17 30.76 1042 3 4.82802 N/A
3:55 am 03:55 Cloudy with Light Snow -3 -19.7 -9 -23 75 75 NNE 9 15 30.77 1042 5 8.0467 N/A
4:15 am 04:15 Cloudy with Light Snow -4 -19.8 -9 -23 76 76 N 8 13 30.77 1042 7 11.26538 N/A
4:35 am 04:35 Cloudy with Light Snow -4 -19.8 -9 -23 76 76 N 8 13 30.77 1042 10 16.0934 N/A
4:55 am 04:55 Mostly Cloudy with Light Snow -4 -19.8 -10 -23.2 75 75 N 8 13 30.78 1042 7 11.26538 N/A
5:15 am 05:15 Mostly Cloudy with Light Snow -4 -20 -10 -23.5 74 74 N 7 11 30.78 1042 10 16.0934 N/A
5:35 am 05:35 Partly Cloudy -4 -20.1 -10 -23.4 75 75 N 6 9 30.79 1043 10 16.0934 N/A
5:55 am 05:55 Clear -4 -20.1 -10 -23.4 75 75 N 6 9 30.8 1043 10 16.0934 N/A
6:15 am 06:15 Partly Cloudy -5 -20.5 -10 -23.5 77 77 NNW 5 7 30.81 1043 10 16.0934 N/A
6:35 am 06:35 Partly Cloudy with Scattered Snow Showers -5 -20.5 -10 -23.5 77 77 NNW 5 7 30.81 1043 7 11.26538 N/A
6:55 am 06:55 Mostly Cloudy with Light Snow -5 -20.5 -10 -23.6 76 76 NW 6 9 30.82 1044 10 16.0934 N/A
7:15 am 07:15 Cloudy with Light Snow -5 -20.5 -10 -23.6 76 76 NW 5 7 30.82 1044 10 16.0934 N/A
7:35 am 07:35 Cloudy -5 -20.5 -10 -23.5 77 77 NW 5 7 30.83 1044 10 16.0934 N/A
7:55 am 07:55 Cloudy -4 -20.2 -10 -23.5 75 75 NNW 6 9 30.83 1044 10 16.0934 N/A
8:15 am 08:15 Cloudy with Light Snow -4 -20 -10 -23.3 75 75 NNW 5 7 30.83 1044 7 11.26538 N/A
8:35 am 08:35 Cloudy with Light Snow -4 -20 -10 -23.1 76 76 N 5 7 30.84 1044 3 4.82802 N/A
8:55 am 08:55 Cloudy with Light Snow -4 -20 -10 -23.2 76 76 NNE 7 11 30.83 1044 3 4.82802 N/A
9:15 am 09:15 Cloudy with Light Snow -4 -20 -10 -23.3 75 75 NE 9 15 30.84 1044 4 6.43736 N/A
9:35 am 09:35 Cloudy with Light Snow -4 -20 -10 -23.5 74 74 NE 8 13 30.84 1044 3 4.82802 N/A
9:55 am 09:55 Cloudy with Light Snow -4 -20 -10 -23.6 73 73 NE 9 15 30.84 1044 2.5 4.02335 N/A
10:15 am 10:15 Cloudy with Light Snow -4 -19.8 -10 -23.6 72 72 NE 9 15 30.84 1044 2 3.21868 N/A
10:35 am 10:35 Cloudy with Light Snow -4 -19.8 -10 -23.6 72 72 NE 8 13 30.84 1044 2.5 4.02335 N/A
10:55 am 10:55 Cloudy with Haze -4 -20 -11 -24 71 71 NE 7 11 30.85 1045 4 6.43736 N/A
11:15 am 11:15 Cloudy with Light Snow -4 -20 -12 -24.2 69 69 NE 8 13 30.85 1045 2.5 4.02335 N/A
11:35 am 11:35 Cloudy with Light Snow -4 -20 -11 -23.9 71 71 NE 9 15 30.85 1045 1.75 2.816345 N/A
11:55 am 11:55 Cloudy with Haze -4 -20.1 -12 -24.2 70 70 NE 9 15 30.84 1044 5 8.0467 N/A
12:15 pm 12:15 Cloudy with Light Snow -4 -20.1 -12 -24.2 70 70 NNE 9 15 30.83 1044 2.5 4.02335 N/A
12:35 pm 12:35 Cloudy with Light Snow -5 -20.3 -12 -24.6 69 69 NNE 10 17 30.83 1044 3 4.82802 N/A
12:55 pm 12:55 Cloudy with Haze -5 -20.4 -13 -25 67 67 NNE 12 19 30.82 1044 5 8.0467 N/A
1:15 pm 13:15 Cloudy -5 -20.3 -13 -25 66 66 NNE 9 15 30.82 1044 7 11.26538 N/A
1:30 pm 13:30 Cloudy -5 -20.3 -13 -25 66 66 N 12 19 30.81 1043 10 16.0934 N/A
1:55 pm 13:55 Cloudy -5 -20.5 -13 -25.1 67 67 NNE 9 15 30.8 1043 10 16.0934 N/A
2:15 pm 14:15 Cloudy -5 -20.5 -14 -25.5 64 64 NNE 10 17 30.79 1043 10 16.0934 N/A
2:35 pm 14:35 Mostly Cloudy -5 -20.6 -15 -26 62 62 NNE 10 17 30.79 1043 10 16.0934 N/A
2:55 pm 14:55 Partly Cloudy -5 -20.6 -15 -26.3 60 60 NNE 8 13 30.78 1042 10 16.0934 N/A
3:15 pm 15:15 Sunny -5 -20.6 -16 -26.4 60 60 NNE 8 13 30.78 1042 10 16.0934 N/A
3:35 pm 15:35 Sunny -5 -20.7 -15 -26.3 61 61 NE 8 13 30.79 1043 10 16.0934 N/A
3:55 pm 15:55 Partly Cloudy -5 -20.6 -16 -26.4 60 60 NNE 10 17 30.78 1042 10 16.0934 N/A
4:15 pm 16:15 Mostly Cloudy -5 -20.5 -16 -26.6 58 58 NNE 9 15 30.78 1042 10 16.0934 N/A
4:30 pm 16:30 Cloudy -5 -20.5 -16 -26.6 58 58 NE 8 13 30.78 1042 10 16.0934 N/A
4:55 pm 16:55 Mostly Cloudy -5 -20.6 -15 -26.3 60 60 NNE 6 9 30.78 1042 10 16.0934 N/A
5:15 pm 17:15 Mostly Cloudy -5 -20.5 -15 -26 62 62 NNE 7 11 30.78 1042 10 16.0934 N/A
5:35 pm 17:35 Cloudy -5 -20.5 -15 -25.9 62 62 NNE 8 13 30.77 1042 10 16.0934 N/A
5:55 pm 17:55 Cloudy -5 -20.6 -15 -26 62 62 NNE 7 11 30.77 1042 10 16.0934 N/A
6:15 pm 18:15 Cloudy -6 -21 -15 -26.1 64 64 NNE 8 13 30.78 1042 10 16.0934 N/A
6:35 pm 18:35 Cloudy -7 -21.4 -15 -26.3 65 65 NE 8 13 30.79 1043 10 16.0934 N/A
6:55 pm 18:55 Mostly Cloudy -7 -21.5 -16 -26.4 65 65 NNE 6 9 30.79 1043 10 16.0934 N/A
7:15 pm 19:15 Mostly Cloudy -6 -21.1 -15 -26.2 64 64 NE 6 9 30.8 1043 10 16.0934 N/A
7:35 pm 19:35 Partly Cloudy -6 -21.2 -15 -26.1 65 65 NNE 6 9 30.8 1043 10 16.0934 N/A
7:55 pm 19:55 Partly Cloudy -6 -21.2 -15 -26 65 65 NE 6 9 30.8 1043 10 16.0934 N/A
8:15 pm 20:15 Partly Cloudy -7 -21.5 -16 -26.4 65 65 NE 6 9 30.8 1043 10 16.0934 N/A
8:35 pm 20:35 Mostly Cloudy -7 -21.5 -17 -27 61 61 NE 6 9 30.8 1043 10 16.0934 N/A
8:55 pm 20:55 Cloudy -7 -21.5 -16 -26.5 64 64 NE 6 9 30.79 1043 10 16.0934 N/A
9:15 pm 21:15 Cloudy -7 -21.5 -16 -26.7 63 63 NE 6 9 30.79 1043 10 16.0934 N/A
9:35 pm 21:35 Cloudy -7 -21.5 -16 -26.6 64 64 NE 5 7 30.82 1044 10 16.0934 N/A
9:55 pm 21:55 Cloudy -7 -21.8 -16 -26.7 65 65 NE 5 7 30.81 1043 10 16.0934 N/A
10:15 pm 22:15 Cloudy -8 -22.2 -17 -27 65 65 NE 5 7 30.8 1043 10 16.0934 N/A
10:35 pm 22:35 Mostly Cloudy -9 -22.6 -17 -27.2 66 66 NNE 5 7 30.81 1043 10 16.0934 N/A
10:55 pm 22:55 Mostly Cloudy -10 -23.4 -18 -28 66 66 NNE 6 9 30.82 1044 10 16.0934 N/A
11:15 pm 23:15 Partly Cloudy -11 -24 -19 -28.3 68 68 NNE 3 6 30.81 1044 10 16.0934 N/A
11:35 pm 23:35 Clear -13 -25 -19 -28.6 72 72 N N/A 30.83 1044 10 16.0934 N/A
11:55 pm 23:55 Partly Cloudy -12 -24.6 -18 -28 73 73 N N/A 30.82 1044 10 16.0934 N/A

Powered by AerisWeather